Location: Nickerson Gardens
(33.9320°N, 118.2484°W)
Time: 20:24:02
(UTC+00:00)

Envisat - Visible Passes

Search period start: 22 January 2021 00:00
Search period end: 01 February 2021 00:00
Orbit: 764 x 766 km, 98.1° (Epoch: 22 January)

Date Brightness Start Highest point End Pass type
(mag) Time Alt. Az. Time Alt. Az. Time Alt. Az.
22 Jan 4.0 13:11:54 10° NNE 13:16:48 48° E 13:21:41 10° S visible
23 Jan 6.0 02:03:07 10° SW 02:06:29 18° W 02:09:54 10° NW visible
23 Jan 5.6 12:36:08 10° NE 12:39:49 20° E 12:43:29 10° SE visible
23 Jan 3.5 14:14:14 10° N 14:18:54 38° WNW 14:23:33 10° SW visible
24 Jan 3.0 13:37:07 10° NNE 13:42:13 89° ESE 13:47:18 10° SSW visible
25 Jan 4.5 13:00:41 10° NNE 13:05:21 36° E 13:10:01 10° SSE visible
26 Jan 5.8 01:51:01 10° SSW 01:55:00 23° W 01:59:00 10° NW visible
26 Jan 5.9 12:25:24 10° ENE 12:28:19 15° E 12:31:13 10° SE visible
26 Jan 3.2 14:02:39 10° N 14:07:33 49° WNW 14:12:25 10° SSW visible
27 Jan 3.3 13:25:44 10° NNE 13:30:49 69° ESE 13:35:52 10° S visible
28 Jan 6.3 02:18:36 10° WSW 02:20:37 12° W 02:22:38 10° WNW visible
28 Jan 5.0 12:49:33 10° NE 12:53:54 28° E 12:58:13 10° SSE visible
29 Jan 5.3 01:39:07 10° SSW 01:43:32 30° W 01:47:58 10° NW visible
29 Jan 6.2 12:15:12 10° ENE 12:16:48 11° E 12:18:23 10° ESE visible
29 Jan 3.0 13:51:09 10° N 13:56:11 64° WNW 14:01:11 10° SSW visible
30 Jan 3.8 13:14:25 10° NNE 13:19:23 52° E 13:24:20 10° S visible
31 Jan 6.1 02:05:59 10° SW 02:09:05 16° W 02:12:14 10° NW visible
31 Jan 5.4 12:38:32 10° NE 12:42:25 22° E 12:46:17 10° SE visible
31 Jan 3.6 14:16:52 10° N 14:21:27 35° WNW 14:26:01 10° SW visible
